DT_LEITURA;HR_LEITURA;MED-PressaoAtm[hPa];VAL-TempExt[oC];VAL-UmidExt[%UR];VAL-TempInt[oC];VAL-UmidInt[%UR];Dir-Vento[grau];Vel-Vento[m/s];Precipitação[mm/h]
18/08/2026;00:04:00;1014,2;;;20,8;84;25;4,3;0,0
18/08/2026;00:09:00;1014,1;;;20,8;84;32;4,1;0,0
18/08/2026;00:14:00;1014,0;;;20,8;84;35;3,5;0,0
18/08/2026;00:19:00;1014,0;;;20,8;84;48;2,4;0,0
18/08/2026;00:24:00;1014,0;;;20,8;84;45;2,6;0,0
18/08/2026;00:29:00;1013,9;;;20,7;84;40;3,5;0,0
18/08/2026;00:34:00;1013,8;;;20,7;84;41;3,5;0,0
18/08/2026;00:39:00;1013,7;;;20,7;84;33;3,6;0,0
18/08/2026;00:44:00;1013,8;;;20,7;84;30;3,6;0,0
18/08/2026;00:49:00;1013,8;;;20,7;84;33;3,8;0,0
18/08/2026;00:54:00;1013,7;;;20,7;84;31;4,0;0,0
18/08/2026;00:59:00;1013,7;;;20,7;84;29;3,8;0,0
18/08/2026;01:04:00;1013,6;;;20,7;84;26;4,1;0,0
18/08/2026;01:09:00;1013,6;;;20,7;84;28;4,6;0,0
18/08/2026;01:14:00;1013,5;;;20,7;84;30;4,2;0,0
18/08/2026;01:19:00;1013,5;;;20,7;84;31;3,8;0,0
18/08/2026;01:24:00;1013,5;;;20,7;84;29;4,4;0,0
18/08/2026;01:29:00;1013,5;;;20,7;84;25;4,5;0,0
18/08/2026;01:34:00;1013,4;;;20,7;84;25;5,3;0,0
18/08/2026;01:39:00;1013,4;;;20,7;84;25;4,5;0,0
18/08/2026;01:44:00;1013,4;;;20,6;84;24;4,1;0,0
18/08/2026;01:49:00;1013,3;;;20,6;84;28;4,7;0,0
18/08/2026;01:54:00;1013,3;;;20,6;84;33;4,1;0,0
18/08/2026;01:59:00;1013,3;;;20,6;84;29;3,9;0,0
18/08/2026;02:04:00;1013,2;;;20,6;84;32;3,6;0,0
18/08/2026;02:09:00;1013,1;;;20,6;84;32;3,8;0,0
18/08/2026;02:14:00;1013,1;;;20,6;84;35;3,7;0,0
18/08/2026;02:19:00;1013,1;;;20,6;84;29;3,8;0,0
18/08/2026;02:24:00;1013,1;;;20,6;84;31;3,7;0,0
18/08/2026;02:29:00;1013,1;;;20,6;84;31;4,0;0,0
18/08/2026;02:34:00;1013,0;;;20,6;84;31;4,0;0,0
18/08/2026;02:39:00;1013,0;;;20,6;84;31;4,3;0,0
18/08/2026;02:44:00;1013,0;;;20,5;84;29;4,3;0,0
18/08/2026;02:49:00;1013,0;;;20,5;84;28;4,0;0,0
18/08/2026;02:54:00;1013,0;;;20,5;84;28;3,9;0,0
18/08/2026;02:59:00;1012,9;;;20,5;84;32;4,1;0,0
18/08/2026;03:04:00;1012,9;;;20,5;84;29;4,2;0,0
18/08/2026;03:09:00;1012,8;;;20,5;84;30;4,0;0,0
18/08/2026;03:14:00;1012,7;;;20,5;84;29;4,2;0,0
18/08/2026;03:19:00;1012,7;;;20,5;84;26;3,7;0,0
18/08/2026;03:24:00;1012,7;;;20,5;84;26;3,7;0,0
18/08/2026;03:29:00;1012,6;;;20,5;84;30;4,3;0,0
18/08/2026;03:34:00;1012,6;;;20,5;84;29;4,2;0,0
18/08/2026;03:39:00;1012,5;;;20,5;84;27;2,9;0,0
18/08/2026;03:44:00;1012,5;;;20,5;84;29;2,6;0,0
18/08/2026;03:49:00;1012,5;;;20,5;84;30;3,0;0,0
18/08/2026;03:54:00;1012,3;;;20,5;84;29;3,6;0,0
18/08/2026;03:59:00;1012,3;;;20,4;84;33;3,9;0,0
18/08/2026;04:04:00;1012,3;;;20,4;84;32;2,8;0,0
18/08/2026;04:09:00;1012,3;;;20,4;84;32;3,6;0,0
18/08/2026;04:14:00;1012,2;;;20,4;84;33;4,0;0,0
18/08/2026;04:19:00;1012,2;;;20,4;84;33;3,4;0,0
18/08/2026;04:24:00;1012,3;;;20,4;84;30;3,3;0,0
18/08/2026;04:29:00;1012,4;;;20,4;84;31;3,0;0,0
18/08/2026;04:34:00;1012,4;;;20,4;84;36;2,1;0,0
18/08/2026;04:39:00;1012,4;;;20,4;84;35;2,3;0,0
18/08/2026;04:44:00;1012,4;;;20,4;84;16;2,5;0,0
18/08/2026;04:49:00;1012,4;;;20,4;84;25;2,1;0,0
18/08/2026;04:54:00;1012,4;;;20,4;84;34;1,6;0,0
18/08/2026;04:59:00;1012,5;;;20,4;84;25;1,4;0,0
18/08/2026;05:04:00;1012,5;;;20,4;84;25;2,1;0,0
18/08/2026;05:09:00;1012,5;;;20,4;84;21;1,6;0,0
18/08/2026;05:14:00;1012,6;;;20,4;84;28;1,7;0,0
18/08/2026;05:19:00;1012,7;;;20,4;84;31;1,7;0,0
18/08/2026;05:24:00;1012,7;;;20,4;84;40;1,4;0,0
18/08/2026;05:29:00;1012,7;;;20,4;84;42;1,9;0,0
18/08/2026;05:34:00;1012,8;;;20,4;84;55;1,7;0,0
18/08/2026;05:39:00;1012,9;;;20,4;84;53;2,6;0,0
18/08/2026;05:44:00;1012,9;;;20,4;84;50;2,9;0,0
18/08/2026;05:49:00;1013,0;;;20,4;84;43;2,8;0,0
18/08/2026;05:54:00;1013,1;;;20,4;84;40;2,5;0,0
18/08/2026;05:59:00;1013,2;;;20,4;84;45;2,1;0,0
18/08/2026;06:04:00;1013,2;;;20,4;84;41;2,7;0,0
18/08/2026;06:09:00;1013,2;;;20,4;84;40;2,2;0,0
18/08/2026;06:14:00;1013,2;;;20,4;84;41;3,1;0,0
18/08/2026;06:19:00;1013,1;;;20,4;84;41;3,0;0,0
18/08/2026;06:24:00;1013,1;;;20,4;84;38;3,3;0,0
18/08/2026;06:29:00;1013,1;;;20,4;84;38;3,9;0,0
18/08/2026;06:34:00;1013,2;;;20,4;84;38;3,8;0,0
18/08/2026;06:39:00;1013,2;;;20,4;84;39;3,6;0,0
18/08/2026;06:44:00;1013,2;;;20,4;84;41;3,1;0,0
18/08/2026;06:49:00;1013,2;;;20,4;84;36;3,5;0,0
18/08/2026;06:54:00;1013,3;;;20,4;84;37;3,2;0,0
18/08/2026;06:59:00;1013,3;;;20,4;84;38;3,0;0,0
18/08/2026;07:04:00;1013,4;;;20,4;84;34;2,7;0,0
18/08/2026;07:09:00;1013,4;;;20,4;84;37;2,6;0,0
18/08/2026;07:14:00;1013,4;;;20,5;84;39;2,7;0,0
18/08/2026;07:19:00;1013,5;;;20,5;84;36;2,2;0,0
18/08/2026;07:24:00;1013,6;;;20,5;84;34;2,7;0,0
18/08/2026;07:29:00;1013,6;;;20,5;84;38;2,8;0,0
18/08/2026;07:34:00;1013,7;;;20,5;84;37;2,7;0,0
18/08/2026;07:39:00;1013,7;;;20,6;84;37;2,8;0,0
18/08/2026;07:44:00;1013,8;;;20,6;84;36;2,9;0,0
18/08/2026;07:49:00;1013,8;;;20,6;84;34;3,1;0,0
18/08/2026;07:54:00;1013,8;;;20,7;84;30;2,8;0,0
18/08/2026;07:59:00;1013,9;;;20,7;84;32;2,9;0,0
18/08/2026;08:04:00;1013,9;;;20,7;85;37;2,9;0,0
18/08/2026;08:09:00;1013,9;;;20,8;85;28;2,8;0,0
18/08/2026;08:14:00;1014,0;;;20,9;85;35;2,6;0,0
18/08/2026;08:19:00;1014,0;;;20,9;85;33;2,7;0,0
18/08/2026;08:24:00;1014,0;;;21,0;85;37;2,7;0,0
18/08/2026;08:29:00;1014,1;;;21,1;85;36;3,2;0,0
18/08/2026;08:34:00;1014,1;;;21,2;86;35;2,6;0,0
18/08/2026;08:39:00;1014,2;;;21,2;86;34;3,0;0,0
18/08/2026;08:44:00;1014,2;;;21,4;86;36;2,9;0,0
18/08/2026;08:49:00;1014,2;;;21,5;86;41;2,3;0,0
18/08/2026;08:54:00;1014,2;;;21,6;87;46;2,7;0,0
18/08/2026;08:59:00;1014,2;;;21,7;87;56;2,8;0,0
18/08/2026;09:04:00;1014,2;;;21,9;86;59;3,4;0,0
18/08/2026;09:09:00;1014,2;;;22,0;86;45;2,6;0,0
18/08/2026;09:14:00;1014,2;;;22,1;86;42;2,5;0,0
18/08/2026;09:19:00;1014,2;;;22,3;86;39;2,4;0,0
18/08/2026;09:24:00;1014,3;;;22,4;86;34;3,3;0,0
18/08/2026;09:29:00;1014,3;;;22,6;86;30;2,6;0,0
18/08/2026;09:34:00;1014,3;;;22,7;86;31;2,8;0,0
18/08/2026;09:39:00;1014,3;;;22,9;86;33;3,2;0,0
18/08/2026;09:44:00;1014,2;;;23,1;86;47;2,6;0,0
18/08/2026;09:49:00;1014,3;;;23,2;86;39;1,9;0,0
18/08/2026;09:54:00;1014,3;;;23,4;86;36;1,8;0,0
18/08/2026;09:59:00;1014,3;;;23,6;86;41;2,4;0,0
18/08/2026;10:04:00;1014,3;;;23,7;86;48;2,7;0,0
18/08/2026;10:09:00;1014,3;;;23,8;85;49;2,5;0,0
18/08/2026;10:14:00;1014,5;;;23,9;85;95;1,7;0,0
18/08/2026;10:19:00;1014,7;;;24,0;86;111;1,9;0,0
18/08/2026;10:24:00;1014,7;;;24,2;86;41;1,9;0,0
18/08/2026;10:29:00;1014,7;;;24,4;86;42;1,4;0,0
18/08/2026;10:34:00;1014,7;;;24,6;86;45;1,0;0,0
18/08/2026;10:39:00;1014,7;;;24,9;87;185;2,3;0,0
18/08/2026;10:44:00;1014,7;;;25,2;86;225;3,3;0,0
18/08/2026;10:49:00;1014,7;;;25,4;86;222;4,0;0,0
18/08/2026;10:54:00;1014,7;;;25,6;85;232;4,8;0,0
18/08/2026;10:59:00;1014,7;;;25,7;84;230;5,1;0,0
18/08/2026;11:04:00;1014,7;;;25,8;84;232;4,7;0,0
18/08/2026;11:09:00;1014,6;;;25,9;84;235;4,2;0,0
18/08/2026;11:14:00;1014,7;;;25,9;84;233;3,5;0,0
18/08/2026;11:19:00;1014,7;;;25,9;84;231;2,7;0,0
18/08/2026;11:24:00;1014,7;;;26,0;84;215;2,1;0,0
18/08/2026;11:29:00;1014,7;;;26,0;84;227;2,3;0,0
18/08/2026;11:34:00;1014,7;;;26,0;84;230;2,9;0,0
18/08/2026;11:39:00;1014,6;;;26,0;84;221;2,3;0,0
18/08/2026;11:44:00;1014,6;;;26,1;84;235;2,6;0,0
18/08/2026;11:49:00;1014,6;;;26,2;84;235;2,3;0,0
18/08/2026;11:54:00;1014,6;;;26,3;84;203;1,4;0,0
18/08/2026;11:59:00;1014,5;;;26,4;84;207;1,4;0,0
18/08/2026;12:04:00;1014,5;;;26,5;84;242;2,4;0,0
18/08/2026;12:09:00;1014,5;;;26,5;84;240;1,9;0,0
18/08/2026;12:14:00;1014,5;;;26,7;84;237;2,6;0,0
18/08/2026;12:19:00;1014,4;;;26,8;84;242;3,9;0,0
18/08/2026;12:24:00;1014,4;;;26,8;84;242;2,2;0,0
18/08/2026;12:29:00;1014,4;;;26,9;84;206;1,5;0,0
18/08/2026;12:34:00;1014,4;;;26,9;83;205;1,3;0,0
18/08/2026;12:39:00;1014,3;;;26,9;83;228;1,4;0,0
18/08/2026;12:44:00;1014,2;;;26,9;83;249;1,8;0,0
18/08/2026;12:49:00;1014,2;;;26,9;83;163;2,1;0,0
18/08/2026;12:54:00;1014,1;;;26,8;83;191;2,0;0,0
18/08/2026;12:59:00;1014,0;;;26,8;83;233;1,4;0,0
18/08/2026;13:04:00;1014,0;;;26,7;83;200;1,8;0,0
18/08/2026;13:09:00;1013,9;;;26,7;83;240;2,6;0,0
18/08/2026;13:14:00;1013,8;;;26,7;83;240;3,5;0,0
18/08/2026;13:19:00;1013,8;;;26,6;82;224;2,5;0,0
18/08/2026;13:24:00;1013,8;;;26,4;82;201;1,7;0,0
18/08/2026;13:29:00;1013,7;;;26,2;82;200;1,3;0,0
18/08/2026;13:34:00;1013,6;;;26,0;82;173;2,3;0,0
18/08/2026;13:39:00;1013,5;;;25,9;83;202;1,3;0,0
18/08/2026;13:44:00;1013,4;;;25,8;83;239;1,0;0,0
18/08/2026;13:49:00;1013,3;;;25,7;83;173;1,5;0,0
18/08/2026;13:54:00;1013,2;;;25,7;84;209;1,5;0,0
18/08/2026;13:59:00;1013,1;;;25,7;85;230;1,7;0,0
18/08/2026;14:04:00;1013,0;;;25,8;85;217;1,7;0,0
18/08/2026;14:09:00;1013,0;;;25,9;85;217;1,3;0,0
18/08/2026;14:14:00;1012,9;;;26,0;84;220;2,2;0,0
18/08/2026;14:19:00;1012,9;;;26,0;84;246;2,2;0,0
18/08/2026;14:24:00;1012,8;;;26,0;83;203;1,1;0,0
18/08/2026;14:29:00;1012,8;;;26,0;83;178;1,6;0,0
18/08/2026;14:34:00;1012,8;;;25,9;83;205;0,5;0,0
18/08/2026;14:39:00;1012,7;;;25,9;83;190;1,3;0,0
18/08/2026;14:44:00;1012,7;;;25,9;83;269;1,4;0,0
18/08/2026;14:49:00;1012,7;;;25,9;83;278;1,4;0,0
18/08/2026;14:54:00;1012,6;;;25,9;83;288;1,3;0,0
18/08/2026;14:59:00;1012,6;;;25,9;83;261;1,1;0,0
18/08/2026;15:04:00;1012,6;;;25,9;83;247;1,2;0,0
18/08/2026;15:09:00;1012,6;;;25,9;83;241;0,7;0,0
18/08/2026;15:14:00;1012,6;;;25,9;83;261;0,5;0,0
18/08/2026;15:19:00;1012,5;;;25,8;83;339;0,4;0,0
18/08/2026;15:24:00;1012,5;;;25,8;83;337;0,5;0,0
18/08/2026;15:29:00;1012,5;;;25,8;83;275;0,7;0,0
18/08/2026;15:34:00;1012,6;;;25,8;83;282;0,6;0,0
18/08/2026;15:39:00;1012,7;;;25,8;83;244;0,7;0,0
18/08/2026;15:44:00;1012,9;;;25,8;83;251;1,1;0,0
18/08/2026;15:49:00;1012,9;;;25,8;83;238;0,9;0,0
18/08/2026;15:54:00;1012,8;;;25,8;83;284;0,8;0,0
18/08/2026;15:59:00;1012,7;;;25,8;84;256;1,1;0,0
18/08/2026;16:04:00;1012,7;;;25,9;83;249;1,6;0,0
18/08/2026;16:09:00;1012,6;;;25,9;82;234;1,3;0,0
18/08/2026;16:14:00;1012,7;;;25,8;81;249;1,9;0,0
18/08/2026;16:19:00;1012,7;;;25,7;81;247;1,4;0,0
18/08/2026;16:24:00;1012,7;;;25,5;81;239;0,9;0,0
18/08/2026;16:29:00;1012,8;;;25,3;82;288;0,9;0,0
18/08/2026;16:34:00;1012,8;;;25,1;82;163;0,9;0,0
18/08/2026;16:39:00;1012,9;;;25,0;82;241;0,9;0,0
18/08/2026;16:44:00;1012,9;;;24,9;82;153;3,0;0,0
18/08/2026;16:49:00;1013,1;;;24,7;81;220;1,7;0,0
18/08/2026;16:54:00;1013,1;;;24,5;82;196;1,9;0,0
18/08/2026;16:59:00;1013,1;;;24,3;82;192;2,7;0,0
18/08/2026;17:04:00;1013,2;;;24,2;82;223;2,7;0,0
18/08/2026;17:09:00;1013,4;;;24,1;82;222;3,3;0,0
18/08/2026;17:14:00;1013,4;;;23,9;82;227;4,2;0,0
18/08/2026;17:19:00;1013,5;;;23,8;82;229;4,0;0,0
18/08/2026;17:24:00;1013,5;;;23,6;82;225;4,0;0,0
18/08/2026;17:29:00;1013,5;;;23,4;82;227;3,8;0,0
18/08/2026;17:34:00;1013,5;;;23,2;82;224;4,2;0,0
18/08/2026;17:39:00;1013,5;;;23,1;82;225;3,9;0,0
18/08/2026;17:44:00;1013,5;;;22,9;82;228;4,4;0,0
18/08/2026;17:49:00;1013,5;;;22,8;82;223;4,3;0,0
18/08/2026;17:54:00;1013,5;;;22,6;82;225;3,7;0,0
18/08/2026;17:59:00;1013,6;;;22,5;83;219;4,3;0,0
18/08/2026;18:04:00;1013,6;;;22,4;83;219;4,1;0,0
18/08/2026;18:09:00;1013,6;;;22,3;83;221;4,5;0,0
18/08/2026;18:14:00;1013,6;;;22,2;83;217;3,8;0,0
18/08/2026;18:19:00;1013,6;;;22,1;83;221;3,1;0,0
18/08/2026;18:24:00;1013,7;;;22,0;83;217;3,2;0,0
18/08/2026;18:29:00;1013,7;;;21,9;83;217;3,1;0,0
18/08/2026;18:34:00;1013,7;;;21,9;83;215;3,2;0,0
18/08/2026;18:39:00;1013,7;;;21,8;83;219;2,8;0,0
18/08/2026;18:44:00;1013,8;;;21,8;83;218;3,6;0,0
18/08/2026;18:49:00;1013,8;;;21,7;83;219;4,0;0,0
18/08/2026;18:54:00;1013,9;;;21,7;83;220;4,5;0,0
18/08/2026;18:59:00;1013,9;;;21,6;83;216;3,9;0,0
18/08/2026;19:04:00;1013,9;;;21,6;83;218;4,4;0,0
18/08/2026;19:09:00;1014,1;;;21,5;83;222;4,2;0,0
18/08/2026;19:14:00;1014,2;;;21,5;83;225;4,7;0,0
18/08/2026;19:19:00;1014,2;;;21,4;83;217;4,3;0,0
18/08/2026;19:24:00;1014,2;;;21,4;84;220;3,8;0,0
18/08/2026;19:29:00;1014,2;;;21,4;84;212;2,9;0,0
18/08/2026;19:34:00;1014,3;;;21,4;84;213;3,3;0,0
18/08/2026;19:39:00;1014,4;;;21,3;84;220;3,2;0,0
18/08/2026;19:44:00;1014,5;;;21,3;84;221;3,6;0,0
18/08/2026;19:49:00;1014,6;;;21,3;84;213;3,1;0,0
18/08/2026;19:54:00;1014,7;;;21,3;84;222;2,8;0,0
18/08/2026;19:59:00;1014,8;;;21,3;84;229;2,5;0,0
18/08/2026;20:04:00;1015,0;;;21,4;84;214;2,0;0,0
18/08/2026;20:09:00;1014,9;;;21,4;84;198;2,2;0,0
18/08/2026;20:14:00;1014,9;;;21,4;84;212;1,4;0,0
18/08/2026;20:19:00;1015,1;;;21,4;84;229;2,6;0,0
18/08/2026;20:24:00;1015,1;;;21,4;84;232;2,5;0,0
18/08/2026;20:29:00;1015,0;;;21,4;83;228;3,1;0,0
18/08/2026;20:34:00;1014,8;;;21,3;83;187;1,3;0,0
18/08/2026;20:39:00;1014,8;;;21,3;83;231;2,2;0,0
18/08/2026;20:44:00;1014,7;;;21,2;83;220;2,6;0,0
18/08/2026;20:49:00;1014,4;;;21,2;83;225;2,4;0,0
18/08/2026;20:54:00;1014,3;;;21,1;83;217;2,8;0,0
18/08/2026;20:59:00;1014,4;;;21,1;83;210;2,8;0,0
18/08/2026;21:04:00;1014,4;;;21,1;83;211;3,4;0,0
18/08/2026;21:09:00;1014,3;;;21,0;83;210;4,2;0,0
18/08/2026;21:14:00;1014,3;;;21,0;83;212;4,0;0,0
18/08/2026;21:19:00;1014,2;;;21,0;83;215;4,0;0,0
18/08/2026;21:24:00;1014,1;;;20,9;83;216;4,1;0,0
18/08/2026;21:29:00;1014,1;;;20,9;83;211;4,3;0,0
18/08/2026;21:34:00;1014,0;;;20,9;83;216;3,8;0,0
18/08/2026;21:39:00;1014,1;;;20,9;83;212;3,7;0,0
18/08/2026;21:44:00;1014,2;;;20,9;83;224;3,7;0,0
18/08/2026;21:49:00;1014,2;;;20,9;83;230;4,0;0,0
18/08/2026;21:54:00;1014,3;;;20,8;83;231;4,0;0,0
18/08/2026;21:59:00;1014,4;;;20,8;83;226;3,6;0,0
18/08/2026;22:04:00;1014,5;;;20,8;83;233;3,3;0,0
18/08/2026;22:09:00;1014,6;;;20,8;83;229;2,3;0,0
18/08/2026;22:14:00;1014,7;;;20,8;83;225;1,8;0,0
18/08/2026;22:19:00;1014,7;;;20,7;83;213;1,1;0,0
18/08/2026;22:24:00;1014,6;;;20,7;83;206;1,3;0,0
18/08/2026;22:29:00;1014,6;;;20,7;83;229;1,3;0,0
18/08/2026;22:34:00;1014,7;;;20,7;83;219;0,8;0,0
18/08/2026;22:39:00;1014,7;;;20,7;83;212;0,8;0,0
18/08/2026;22:44:00;1014,7;;;20,6;83;220;1,1;0,0
18/08/2026;22:49:00;1014,7;;;20,6;83;240;1,1;0,0
18/08/2026;22:54:00;1014,8;;;20,6;83;245;1,5;0,0
18/08/2026;22:59:00;1014,8;;;20,6;83;238;1,1;0,0
18/08/2026;23:04:00;1014,8;;;20,6;83;212;0,9;0,0
18/08/2026;23:09:00;1014,9;;;20,5;83;183;0,4;0,0
18/08/2026;23:14:00;1014,9;;;20,5;83;244;0,4;0,0
18/08/2026;23:19:00;1014,9;;;20,5;83;192;0,7;0,0
18/08/2026;23:24:00;1014,9;;;20,5;83;154;0,8;0,0
18/08/2026;23:29:00;1014,9;;;20,4;83;156;0,7;0,0
18/08/2026;23:34:00;1014,9;;;20,4;83;152;1,0;0,0
18/08/2026;23:39:00;1014,8;;;20,4;83;163;0,8;0,0
18/08/2026;23:44:00;1014,8;;;20,3;83;164;0,7;0,0
18/08/2026;23:49:00;1014,8;;;20,3;83;148;1,0;0,0
18/08/2026;23:54:00;1014,8;;;20,3;83;192;0,5;0,0
18/08/2026;23:59:00;1014,7;;;20,3;83;170;0,5;0,0
